www.pogodaiklimat.ru

Погода и климат >> Архив погоды >> Австрия >> Клагенфурт


ПОГОДА в Клагенфурте

  • Прогноз погоды в Клагенфурте
  • Монитор погоды в Клагенфурте

АРХИВ ПОГОДЫ в Клагенфурте

Время (UTC), дата Ветер
(напр.,м/с)
 
Видим.   Явления Облачность Т
(С)
Тd
(С)
f
(%)
Тe
(С)
Тes
(С)
Комфортность P
(гПа)
Po
(гПа)
Тmin
(С)
Tmax
(С)
R
(мм)
R24
(мм)
S
(см)
04 8.09 штиль 0 н/о н/о +12.1 +11.1 94 +11 +11 1017.7 964.6
05 8.09 СЗ 1 н/о н/о +12.1 +11.2 94 +12 +12 1017.5 964.4
06 8.09 С 1 н/о {ливн. осадки} н/о +12.4 +11.2 92 +12 +12 1017.6 964.6 +11.9 +13.6 7
07 8.09 В 1 н/о н/о +12.6 +11.0 90 +13 +13 1017.6 964.6 0.0
08 8.09 СВ 2 н/о н/о +13.0 +10.6 85 +12 +12 1017.5 964.6 0.0
09 8.09 В 1 н/о н/о +13.6 +11.0 84 +14 +14 1017.2 964.4 0.0
10 8.09 СВ 1 н/о н/о +14.5 +11.6 83 +15 +15 1016.1 963.5
11 8.09 В 2 н/о н/о +14.8 +10.9 77 +15 +15 1015.5 963.0 0.0
12 8.09 В 2 н/о н/о +14.6 +11.3 81 +14 +14 1014.8 962.3 0.0
13 8.09 СВ 2 н/о н/о +15.0 +11.3 79 +15 +15 1013.9 961.5
14 8.09 СВ 2 н/о н/о +14.5 +11.4 82 +14 +14 1013.6 961.1 0.0
15 8.09 В 4 н/о в посл. час осадки н/о +14.7 +11.7 82 +13 +13 1012.8 960.4 0.0
16 8.09 В 3 н/о осадки н/о +13.9 +12.4 91 +13 +13 1013.6 961.1 3
17 8.09 В 3 н/о осадки н/о +13.9 +12.3 90 +13 +13 1012.8 960.3 3
18 8.09 СВ 1 н/о {ливн. осадки} н/о +13.6 +12.7 94 +14 +14 1013.7 961.1 +12.3 +15.1 12
19 8.09 В 2 н/о в посл. час осадки н/о +13.6 +12.5 93 +13 +13 1013.0 960.4 2
20 8.09 В 1 н/о н/о +13.5 +12.7 95 +14 +14 1012.8 960.2
21 8.09 СЗ 1 н/о {осадки} н/о +13.4 +12.5 94 +13 +13 1012.6 960.0 2
22 8.09 Ю 1 н/о н/о +13.3 +12.6 96 +13 +13 1012.1 959.5 0.0
23 8.09 ЮЗ 1 н/о н/о +13.0 +12.2 95 +13 +13 1011.6 959.0
00 9.09 СВ 1 н/о {осадки} н/о +12.6 +11.8 95 +13 +13 1011.4 958.7 2
01 9.09 З 1 н/о н/о +12.3 +11.4 94 +12 +12 1011.4 958.7
02 9.09 С 1 н/о ливневой дождь н/о +11.8 +10.2 90 +12 +12 1011.0 958.2 0.6
03 9.09 З 2 н/о {ливн. осадки} н/о +11.2 +9.4 89 +10 +10 1010.9 958.0 0.6
04 9.09 СЗ 1 н/о н/о +10.5 +8.3 86 +10 +10 1011.6 958.5
05 9.09 СЗ 1 н/о н/о +9.9 +8.7 92 +9 +9 1012.5 959.2
06 9.09 СЗ 1 н/о {ливн. осадки} н/о +10.4 +9.2 92 +10 +10 1012.8 959.6 +9.7 +13.7 3
07 9.09 СЗ 1 н/о н/о +11.4 +9.3 87 +11 +11 1013.1 960.1
08 9.09 З 1 н/о н/о +12.2 +9.4 83 +12 +12 1012.9 960.0
09 9.09 СЗ 1 н/о н/о +13.3 +8.7 74 +14 +14 1012.8 960.1
10 9.09 З 1 н/о н/о +15.1 +9.3 68 +16 +16 1012.6 960.3
11 9.09 Ю 2 н/о н/о +16.1 +8.2 59 +16 +16 1012.4 960.2
12 9.09 ЮЗ 1 н/о н/о +17.1 +8.0 55 +18 +18 1012.4 960.4
13 9.09 ЮЗ 2 н/о н/о +18.6 +8.3 51 +20 +20 1012.0 960.3
14 9.09 штиль 0 н/о н/о +18.7 +7.1 47 +19 +19 1011.6 959.9
15 9.09 ЮЗ 1 н/о н/о +19.3 +8.2 49 +21 +21 комфорт 1011.7 960.1 0.0
16 9.09 С 1 н/о н/о +18.8 +6.8 46 +20 +20 1012.1 960.4
17 9.09 СВ 2 н/о н/о +18.0 +9.5 58 +19 +19 1012.7 960.9
18 9.09 СВ 2 н/о н/о +14.5 +10.3 76 +14 +14 1014.4 961.9 +10.4 +19.7 0.0
19 9.09 СВ 1 н/о н/о +13.3 +10.4 83 +13 +13 1015.7 962.9
20 9.09 СВ 1 н/о н/о +12.7 +10.6 87 +13 +13 1016.4 963.5
21 9.09 С 1 н/о н/о +12.6 +8.7 77 +13 +13 1017.0 964.0
22 9.09 С 1 н/о н/о +10.8 +8.4 85 +10 +10 1017.8 964.4
23 9.09 С 1 н/о н/о +9.9 +7.9 87 +9 +9 1018.3 964.7
00 10.09 СЗ 1 н/о н/о +9.2 +7.8 91 +9 +9 1019.0 965.2
01 10.09 СЗ 1 н/о н/о +8.6 +7.5 93 +8 +8 1019.3 965.4
02 10.09 штиль 0 н/о н/о +8.0 +7.0 93 +7 +7 1019.5 965.5
03 10.09 СЗ 1 н/о н/о +7.6 +6.7 94 +7 +7 1019.6 965.5
04 10.09 СЗ 1 н/о н/о +7.2 +6.5 95 +6 +6 1020.0 965.8
05 10.09 СЗ 1 н/о н/о +7.4 +7.3 99 +6 +6 1020.5 966.3
06 10.09 штиль 0 н/о н/о +8.0 +7.9 99 +7 +7 1020.5 966.4 +7.0 +14.9
07 10.09 Ю 1 н/о н/о +9.2 +8.6 96 +8 +8 1020.9 967.1
08 10.09 Ю 1 н/о н/о +11.1 +8.9 86 +11 +11 1020.9 967.4
09 10.09 ЮЗ 1 н/о н/о +13.5 +9.3 76 +14 +14 1020.1 967.1
10 10.09 Ю 2 н/о н/о +15.1 +9.9 71 +15 +15 1019.7 967.0
11 10.09 Ю 1 н/о н/о +16.6 +9.9 65 +18 +18 1018.9 966.5
12 10.09 Ю 2 н/о н/о +18.0 +10.3 61 +19 +19 1018.4 966.3
13 10.09 Ю 1 н/о н/о +19.3 +9.5 53 +21 +21 комфорт 1017.8 965.9
14 10.09 ЮВ 2 н/о н/о +20.4 +10.8 54 +23 +23 комфорт 1017.2 965.6
15 10.09 ЮВ 2 н/о н/о +20.6 +10.1 51 +23 +23 комфорт 1017.2 965.6
16 10.09 В 2 н/о н/о +20.4 +10.6 53 +23 +23 комфорт 1017.1 965.5
17 10.09 В 1 н/о н/о +19.9 +11.0 56 +22 +22 комфорт 1017.4 965.7
18 10.09 СВ 2 н/о н/о +16.6 +11.9 74 +17 +17 1018.5 966.2 +7.7 +20.9
19 10.09 С 1 н/о н/о +14.8 +11.8 82 +15 +15 1020.0 967.3
20 10.09 СЗ 1 н/о н/о +13.4 +11.3 87 +14 +14 1020.6 967.6
21 10.09 штиль 0 н/о н/о +12.4 +10.6 89 +12 +12 1021.5 968.2
22 10.09 СЗ 1 н/о н/о +11.7 +10.3 91 +11 +11 1022.2 968.8
23 10.09 СЗ 1 н/о н/о +11.1 +10.0 93 +11 +11 1022.7 969.1
00 11.09 СЗ 1 н/о н/о +10.4 +9.5 94 +10 +10 1023.0 969.3
01 11.09 СЗ 1 н/о н/о +9.9 +9.1 95 +9 +9 1023.3 969.5
02 11.09 С 1 н/о н/о +9.2 +8.4 95 +8 +8 1023.7 969.7
03 11.09 СЗ 1 н/о н/о +8.6 +8.0 96 +8 +8 1023.7 969.6
04 11.09 СЗ 1 н/о н/о +8.3 +7.7 96 +7 +7 1024.3 970.1
05 11.09 С 1 н/о н/о +8.6 +8.3 98 +8 +8 1025.0 970.8
06 11.09 СЗ 2 н/о н/о +8.9 +8.3 96 +7 +7 1025.1 971.0 +7.8 +16.9
07 11.09 СЗ 1 н/о н/о +10.5 +10.0 97 +10 +10 1025.0 971.2
08 11.09 штиль 0 н/о н/о +12.9 +10.2 84 +12 +12 1024.5 971.2
09 11.09 ЮВ 2 н/о н/о +14.7 +11.3 80 +14 +14 1024.3 971.3
10 11.09 Ю 1 н/о н/о +17.1 +11.1 68 +18 +18 1023.6 971.1
11 11.09 Ю 1 н/о н/о +18.8 +10.1 57 +21 +21 комфорт 1023.2 971.0
12 11.09 ЮВ 2 н/о н/о +19.9 +8.4 47 +22 +22 комфорт 1022.5 970.5
13 11.09 Ю 2 н/о н/о +21.6 +9.4 46 +23 +23 комфорт 1021.9 970.2
14 11.09 СВ 2 н/о н/о +21.7 +9.1 45 +23 +23 комфорт 1021.2 969.6
15 11.09 ЮВ 1 н/о н/о +21.6 +10.3 49 +23 +23 комфорт 1021.4 969.8
16 11.09 ЮВ 2 н/о н/о +20.8 +11.0 53 +23 +23 комфорт 1021.7 969.9
17 11.09 С 1 н/о н/о +20.0 +13.2 65 +23 +23 комфорт 1022.1 970.2
18 11.09 СВ 2 н/о н/о +17.2 +13.3 78 +18 +18 1023.2 970.8 +8.3 +22.0
19 11.09 СЗ 1 н/о н/о +16.3 +13.0 81 +17 +17 1024.5 971.8
20 11.09 В 1 н/о н/о +14.7 +12.3 86 +15 +15 1025.5 972.5
21 11.09 С 1 н/о н/о +13.8 +11.9 88 +14 +14 1026.5 973.3
22 11.09 СЗ 1 н/о н/о +13.4 +11.6 89 +14 +14 1027.1 973.7
23 11.09 СЗ 1 н/о н/о +13.0 +11.4 90 +13 +13 1027.7 974.2
00 12.09 С 1 н/о н/о +12.4 +11.0 91 +12 +12 1028.1 974.5
01 12.09 С 1 н/о н/о +11.7 +10.6 93 +11 +11 1028.3 974.6
02 12.09 штиль 0 н/о н/о +11.2 +10.2 94 +10 +10 1028.8 974.9
03 12.09 СЗ 1 н/о н/о +10.7 +9.9 95 +10 +10 1029.4 975.4
04 12.09 СЗ 1 н/о н/о +10.4 +9.6 95 +10 +10 1030.0 975.9
05 12.09 С 1 н/о н/о +10.0 +9.2 95 +9 +9 1030.8 976.6
06 12.09 СЗ 1 н/о н/о +10.6 +9.4 92 +10 +10 1031.2 977.1 +10.0 +17.6
07 12.09 СЗ 1 н/о н/о +13.9 +10.8 82 +14 +14 1031.2 977.7
08 12.09 штиль 0 н/о н/о +16.2 +11.3 73 +16 +16 1031.1 978.0
09 12.09 ЮВ 1 н/о н/о +18.0 +11.8 67 +19 +19 1030.8 978.1
10 12.09 Ю 1 н/о н/о +20.1 +11.6 58 +23 +23 комфорт 1030.3 978.0
11 12.09 Ю 2 н/о н/о +21.7 +9.4 45 +23 +23 комфорт 1029.9 977.8
12 12.09 Ю 3 н/о н/о +23.3 +10.1 43 +25 +25 комфорт 1029.2 977.4
13 12.09 ЮВ 2 н/о н/о +23.0 +9.6 43 +25 +25 комфорт 1028.7 976.9
14 12.09 СЗ 2 н/о н/о +23.7 +10.1 42 +25 +25 комфорт 1028.5 976.8
15 12.09 СЗ 1 н/о н/о +23.3 +9.3 41 +25 +25 комфорт 1028.3 976.6
16 12.09 Ю 2 н/о н/о +23.7 +10.3 43 +25 +25 комфорт 1028.0 976.4
17 12.09 СВ 1 н/о н/о +22.5 +12.5 53 +25 +25 комфорт 1028.4 976.6
18 12.09 С 1 н/о н/о +18.4 +13.0 71 +20 +20 1029.5 976.9 +10.4 +24.4
20 12.09 СЗ 1 н/о н/о +15.0 +12.3 84 +16 +16 1031.2 977.9
21 12.09 штиль 0 н/о н/о +14.1 +11.9 87 +14 +14 1031.7 978.2
22 12.09 СЗ 1 н/о н/о +13.3 +11.6 89 +13 +13 1032.3 978.7
23 12.09 штиль 0 н/о н/о +12.5 +11.1 91 +12 +12 1032.7 978.9
00 13.09 СЗ 1 н/о н/о +12.3 +11.0 92 +12 +12 1032.9 979.0
01 13.09 СЗ 1 н/о н/о +11.4 +10.3 93 +11 +11 1033.2 979.1
02 13.09 СЗ 1 н/о н/о +10.9 +9.9 94 +10 +10 1033.4 979.2
03 13.09 СЗ 1 н/о н/о +10.4 +9.4 94 +10 +10 1033.4 979.1
04 13.09 СЗ 1 н/о н/о +10.0 +9.1 94 +9 +9 1034.0 979.6
05 13.09 СЗ 1 н/о н/о +9.6 +8.7 94 +9 +9 1034.5 980.0
06 13.09 С 1 н/о н/о +11.4 +10.0 91 +11 +11 1034.2 980.1 +9.5 +18.8
07 13.09 СЗ 1 н/о н/о +13.3 +11.3 88 +13 +13 1033.8 980.1
08 13.09 штиль 0 н/о н/о +16.0 +11.6 75 +16 +16 1033.1 979.9
09 13.09 ЮВ 1 н/о н/о +18.0 +12.1 68 +19 +19 1032.4 979.6 0.0
10 13.09 ЮВ 1 н/о н/о +20.0 +12.0 60 +23 +23 комфорт 1031.4 979.0
11 13.09 Ю 1 н/о н/о +21.4 +11.8 54 +23 +23 комфорт 1030.3 978.2
12 13.09 Ю 1 н/о н/о +23.1 +12.1 50 +26 +26 жарко 1029.2 977.4 0.0
13 13.09 ЮВ 1 н/о н/о +24.1 +11.0 44 +25 +25 комфорт 1028.2 976.6
14 13.09 Ю 1 н/о н/о +25.2 +10.9 41 +26 +26 жарко 1027.3 976.0
15 13.09 ЮВ 3 н/о н/о +25.0 +12.2 45 +27 +27 жарко 1026.9 975.6
16 13.09 ЮВ 2 н/о н/о +25.1 +11.2 42 +26 +26 жарко 1026.9 975.6
17 13.09 В 2 н/о н/о +23.7 +12.4 49 +26 +26 жарко 1027.3 975.7
18 13.09 С 1 н/о н/о +19.3 +14.0 71 +22 +22 комфорт 1028.3 976.0 +11.2 +25.3 0.0
19 13.09 СЗ 1 н/о н/о +17.7 +14.0 79 +19 +19 1029.4 976.7
20 13.09 СЗ 1 н/о н/о +16.5 +13.5 82 +17 +17 1029.9 977.0
21 13.09 штиль 0 н/о н/о +15.3 +13.3 88 +15 +15 1030.8 977.6
22 13.09 СЗ 1 н/о н/о +14.8 +12.9 88 +15 +15 1031.2 977.9
23 13.09 СЗ 1 н/о н/о +14.2 +12.8 91 +14 +14 1031.3 977.9
00 14.09 СЗ 1 н/о н/о +13.4 +12.3 93 +14 +14 1031.5 977.9
01 14.09 СЗ 1 н/о н/о +12.9 +11.9 94 +13 +13 1031.7 978.0
02 14.09 штиль 0 н/о н/о +12.4 +11.5 94 +12 +12 1031.6 977.8
03 14.09 штиль 0 н/о н/о +11.8 +10.9 94 +11 +11 1031.9 978.0
04 14.09 СЗ 1 н/о н/о +11.3 +10.5 95 +11 +11 1032.2 978.2
05 14.09 СЗ 2 н/о н/о +11.7 +11.5 99 +10 +10 1032.3 978.4
06 14.09 СЗ 1 н/о н/о +12.6 +11.1 91 +13 +13 1032.4 978.6 +11.2 +20.0
07 14.09 СЗ 1 н/о н/о +15.6 +12.8 83 +16 +16 1032.0 978.8
08 14.09 ЮЗ 1 н/о н/о +16.9 +13.5 80 +18 +18 1031.6 978.7
09 14.09 ЮВ 2 н/о н/о +19.9 +14.5 71 +23 +23 комфорт 1030.8 978.5
10 14.09 ЮВ 2 н/о н/о +20.7 +13.6 64 +24 +24 комфорт 1030.2 978.0
11 14.09 ЮВ 3 н/о н/о +21.8 +13.5 59 +25 +25 комфорт 1029.3 977.3
12 14.09 Ю 2 н/о н/о +23.0 +14.4 58 +27 +27 душно 1028.2 976.5
13 14.09 ЮВ 3 н/о н/о +23.9 +13.4 52 +26 +26 жарко 1027.1 975.6
14 14.09 ЮВ 3 н/о н/о +24.3 +13.4 51 +27 +27 жарко 1026.3 974.9
15 14.09 В 2 н/о н/о +23.8 +13.7 53 +26 +26 жарко 1025.9 974.5
16 14.09 В 3 н/о н/о +22.9 +14.2 58 +26 +26 жарко 1026.1 974.5
17 14.09 В 3 н/о н/о +21.6 +14.5 64 +25 +25 комфорт 1026.6 974.8
18 14.09 В 2 н/о н/о +20.1 +14.5 70 +23 +23 комфорт 1027.5 975.4 +12.2 +24.6
19 14.09 В 1 н/о н/о +17.4 +14.0 80 +18 +18 1028.4 975.7
20 14.09 СВ 1 н/о н/о +17.2 +14.1 82 +18 +18 1028.5 975.8
21 14.09 СВ 1 н/о н/о +16.9 +13.9 82 +18 +18 1028.8 976.0
22 14.09 СЗ 1 н/о н/о +16.9 +14.2 84 +18 +18 1028.7 975.9
23 14.09 СЗ 1 н/о н/о +16.8 +14.3 85 +18 +18 1028.5 975.7
00 15.09 СЗ 1 н/о н/о +16.5 +14.3 87 +17 +17 1028.5 975.7
01 15.09 СЗ 1 н/о н/о +16.2 +14.3 89 +17 +17 1028.4 975.5
02 15.09 штиль 0 н/о н/о +16.2 +14.3 89 +16 +16 1028.3 975.4
03 15.09 СЗ 1 н/о н/о +16.2 +14.3 89 +17 +17 1027.7 974.9
04 15.09 С 1 н/о н/о +16.0 +14.4 90 +17 +17 1027.3 974.5
05 15.09 штиль 0 н/о н/о +15.5 +14.5 94 +15 +15 1027.5 974.6

 

Местоположение метеостанции Клагенфурт (Австрия): широта 46.63 долгота 14.32 высота над уровнем моря 450 м.

В архиве по умолчанию представлена погода в Клагенфурте за последнюю неделю. Архивные данные за месяц целиком и за предыдущие месяцы, начиная с января 2011 года, Вы можете получить, выбрав интересующий диапазон дат из раскрывающегося списка и нажав кнопку "Ввод!".


*Определитесь, кто Вы:
робот инопланетянин человек

Внимание! Время в таблицах - всемирное. Для получения местного времени необходимо прибавить поправку, которая равна 1 ч.

Смотрите также архив погоды в соседних городах и на ближайших метеорологических станциях:

Погода в Клагенфурте (Австрия) (2 км)
Погода в Пёрчах-ам-Вёртерзе (Австрия) (11 км)
Погода в Фельдкирхене (Австрия) (20 км)
Погода в Вайтенсфельд-им-Гурктале (Австрия) (26 км)
Погода Айзенкаппель-Феллах (Австрия) (27 км)
Погода в Лесце (Словения) (31 км)
Погода в Филлахе (Австрия) (34 км)
Погода в Файстриц-об-Блайбурге (Австрия) (35 км)
Погода в Арриахе (Австрия) (38 км)
Погода в Санкт-Андре (Австрия) (42 км)

Пояснения к столбцам:

Ветер - указаны скорость ветра в м/с - средняя за 10 мин, порывы в срок и между сроками (в фигурных скобках) и направление, откуда дует ветер: С - северный, СВ - северо-восточный, В - восточный, ЮВ - юго-восточный, Ю - южный, ЮЗ - юго-западный, З - западный, СЗ - северо-западный.
Видимость - горизонтальная дальность видимости в метрах или километрах. При видимости от 1 до 10 км при отсутствии осадков обычно наблюдается дымка, при ухудшении видимости до 1 км и менее - туман. В сухую погоду видимость может ухудшаться дымом, пылью или мглою.
Явления - указаны атмосферные явления, наблюдавшиеся в срок или в последний час перед сроком; фигурными скобками обозначены явления, наблюдавшиеся между сроками (за 1-3 часа до срока); квадратными скобками обозначены град или гололедные отложения с указанием их диаметра в мм.
Облачность - указаны через наклонную черту общая и нижняя облачность в баллах и высота нижней границы облаков в метрах; квадратными скобками обозначены формы облаков: Ci - перистые, Cs - перисто-слоистые, Cc - перисто-кучевые, Ac - высококучевые, As - высокослоистые, Sc - слоисто-кучевые, Ns - слоисто-дождевые, Cu - кучевые, Cb - кучево-дождевые. Подробнее классификацию облаков см. в Атласе облаков (PDF).
T - Температура воздуха - температура, измеренная на высоте 2 м над землей.
Td - Температура точки росы - температура, при понижении до которой содержащийся в воздухе водяной пар достигнет насыщения.
f - Относительная влажность воздуха - влажноcть воздуха, измеренная на высоте 2 м над землей.
Te - Эффективная температура - температура, которую ощущает одетый по сезону человек в тени. Характеристика душности погоды. При расчете учитывается влияние влажности воздуха и скорости ветра на теплоощущения человека.
Tes - Эффективная температура на солнце - температура, которую ощущает человек, с поправкой на солнечный нагрев. Характеристика знойности погоды. Зависит от высоты солнца над горизонтом, облачности и скорости ветра. Ночью, в пасмурную погоду, а также при ветре 12 м/с и более поправка равна нулю.
P - Атмосферное давление - приведенное к уровню моря атмосферное давление.
Po - Атмосферное давление - измеренное на уровне метеостанции атмосферное давление.
Tmin - Минимальная температура - минимум температуры воздуха на высоте 2 м над землей.
Tmax - Максимальная температура - максимум температуры воздуха на высоте 2 м над землей.
R - Количество осадков - Количество выпавших осадков за период времени, мм. При наведении курсора мыши на число - период времени, за который выпало указанное количество осадков.
R24 - Количество осадков - Количество выпавших осадков за 24 часа, мм.
S - Снежный покров - Высота снежного покрова, см. При наведении курсора мыши на число - состояние снежного покрова и степень покрытия местности в баллах.